Location: Bremen
(53.0793°N, 8.8017°E)
Time: 17:39:17
(UTC+02:00)

Explorer 7 - Pass Details

Date: 20 April 2024
Orbit: 467 x 626 km, 50.3° (Epoch: 17 May)

Event Time Altitude Azimuth Distance (km) Brightness Sun altitude
Rises 12:03:49 0° 204° (SSW) 2,889 10.9 45.7°
Reaches altitude 10° 12:06:40 10° 186° (S) 1,998 10.4 45.9°
Maximum altitude 12:09:52 19° 142° (SE) 1,509 10.3 46.1°
Drops below altitude 10° 12:13:06 10° 98° (E) 2,007 10.2 46.3°
Sets 12:15:57 0° 81° (E) 2,908 10.6 46.5°
